Regional Weather Roundup
Issued by NWS Jackson, KY

Home | Current Version | Previous Version | Text Only | Print | Product List | Glossary Off
Versions: 1 2 3 4 5 6 7 8 9 10 11 12 13 14 15 16 17 18 19 20 21 22 23 24 25 26 27 28 29 30 31 32 33 34 35 36 37 38 39 40 41 42 43 44 45 46 47 48 49 50

000
ASUS43 KJKL 071710
RWRJKL

EAST KENTUCKY HOURLY WEATHER ROUNDUP
NATIONAL WEATHER SERVICE JACKSON KY
1200 PM EST WED DEC 07 2016

NOTE: "FAIR" INDICATES FEW OR NO CLOUDS BELOW 12,000 FEET WITH
NO SIGNIFICANT WEATHER AND/OR OBSTRUCTIONS TO VISIBILITY.

* THESE REPORTS ARE NOT UNDER NWS QUALITY CONTROL AND MAY NOT
  REPORT WEATHER SUCH AS PRECIPITATION AND FOG.

KYZ079-080-083-085-087-088-110-112-115-119-120-071800
...EASTERN KENTUCKY...

CITY           SKY/WX    TMP DP  RH WIND       PRES   REMARKS
JACKSON        SUNNY     42  32  67 NW3       30.14F
LONDON         CLOUDY    39  32  76 E6        30.15F WCI  35
SOMERSET*      PTSUNNY   39  32  75 CALM      30.16F
MONTICELLO*    CLOUDY    41  34  76 N12       30.17F
WILLIAMSBURG*  CLOUDY    39  36  87 N6        30.14F WCI  35
MIDDLESBORO*   MOSUNNY   47  37  68 N5        30.11F
HARLAN APT*    CLOUDY    45  34  65 NW5       30.10F
PIKE CO APT*   CLOUDY    38  33  82 W5        30.14S WCI  35
BIG SANDY APT* PTSUNNY   40  33  75 CALM      30.15F
MOREHEAD APT*  SUNNY     41  30  65 W5        30.18F
ASHLAND*       SUNNY     43  32  65 CALM      30.15F
$$

KYZ035-036-041-042-044-050-067-078-099-071800
...CENTRAL KENTUCKY...

CITY           SKY/WX    TMP DP  RH WIND       PRES   REMARKS
MT STERLING*   MOSUNNY   41  30  65 NW3       30.18F
FLEMING/MASON* MOSUNNY   38  28  65 W5        30.18F WCI  35
DANVILLE*      MOSUNNY   37  30  75 N7        30.18F WCI  32
LEXINGTON      PTSUNNY   42  27  55 VRB3      30.17F
FRANKFORT      PTSUNNY   41  27  57 CALM      30.17F
LOUISVILLE     CLOUDY    41  22  46 CALM      30.19F
LEBANON*       PTSUNNY   41  28  60 N3        30.18F
GLASGOW*       MOSUNNY   42  30  64 N6        30.17F
BOWLING GREEN  MOSUNNY   44  33  65 N6        30.19F
$$

KYZ091>093-OHZ055-061-077-WVZ005-015-034-035-042-071800
...SOUTHERN OHIO/WEST VIRGINIA...

CITY           SKY/WX    TMP DP  RH WIND       PRES   REMARKS
COVINGTON      PTSUNNY   36  23  59 SW7       30.16F WCI  30
COLUMBUS       MOSUNNY   36  24  62 SW7       30.13F WCI  30
DAYTON         PTSUNNY   36  22  56 SW12      30.14F WCI  28
WILMINGTON     SUNNY     36  23  59 W6        30.14F WCI  31
HUNTINGTON     SUNNY     44  25  47 VRB3      30.15F
CHARLESTON     MOSUNNY   42  31  64 SW9       30.13F
PINEVILLE*     CLOUDY    43  30  59 MISG      30.15F
BECKLEY        MOSUNNY   41  29  62 NW7       30.07F
BLUEFIELD      PTSUNNY   37  29  72 VRB5      30.07F WCI  33
LOGAN CO APT*  CLOUDY    37  34  87 CALM      30.12S
$$

VAZ002-007-008-TNZ017-027-036-066-071-071800
...SOUTHWEST VIRGINIA/EAST TENNESSEE...

CITY           SKY/WX    TMP DP  RH WIND       PRES   REMARKS
WISE*          MOSUNNY   41  32  70 N5        30.09F
JONESVILLE*      N/A     50  37  62 CALM      30.11F
ABINGDON*      SUNNY     47  33  57 CALM      30.07F
BRISTOL        MOSUNNY   49  36  61 N5        30.08F
MORRISTOWN*    SUNNY     48  37  66 VRB6      30.06F
SEVIERVILLE*   SUNNY     48  37  66 N5        30.07F
KNOXVILLE      MOSUNNY   51  38  60 N8        30.07F
OAK RIDGE      SUNNY     50  36  58 NE5       30.09F
CROSSVILLE     CLOUDY    40  34  79 N7        30.09F
NASHVILLE      PTSUNNY   44  33  65 NE9       30.17F
$$

...KEY TO REMARKS...
VSB - VISIBILITY IN MILES
WCI - WIND CHILL INDEX
HX  - HEAT INDEX

$$



USA.gov is the U.S. government's official web portal to all federal, state and local government web resources and services.